Zurück zum Katalog

FENGYUN 1C DEB

AktivPO
NORAD 30167·DEBRIS·🇨🇳 China

Gestartet May 10, 1999 von Taiyuan Satellite Launch Center

Loading…

Nächste Überflüge (nächste 24 Stunden)

TLE

AktuellSource: Space-Track

Epoche: Sep 14, 2026, 06:30 UTC

1 30167U 99025TY  26257.27090444  .00000860  00000-0  21069-3 0  9999
2 30167  98.9678   4.5208 0142405  48.9417 334.2050 14.49389767 33487

Verfolge FENGYUN 1C DEB in Echtzeit mit AllMySat

Download on the App Store